国际通讯卫星 31 星 (INTELSAT 31 (IS-31))

导读 | 豆包AI

INTELSAT 31是由国际通信卫星组织(ITSO)运营的通信卫星,于2016年6月9日发射升空。该卫星基于成熟的商用卫星平台打造,属于地球静止轨道通信卫星,主要接替在轨老化卫星,为全球范围提供通信广播服务。作为国际通信卫星组网的重要组成部分,它承担着跨区域语音、数据传输及媒体广播保障任务,持续为全球用户提供稳定可靠的卫星通信连接,服务商业通信与公共通信领域需求。

Basic Information
目录编号:
41581
目录名称:
INTELSAT 31
国际标识:
2016-035A
轨道中心:
EARTH
卫星名称:
国际通讯卫星 31 星
卫星全名:
国际通讯卫星 31 星 (INTELSAT 31 (IS-31))
卫星状态:
在轨 (已飞行3637 天)
发射日期:
2016-06-09 UTC
国别 :
(ITSO)
星等 :
--
Orbit Information
数据来源 国际轨道数据 AOE轨道数据
星历时间 2026-05-23T21:38:49+0800
1天前
查看轨道信息
2026-05-21T14:00:00+0800
3天前
查看轨道信息
半长轴 42164.364km 42165.149km
偏心率 0.0001267 0.0001415
轨道倾角 0.014° 0.011°
近地点辐角 7.997° 16.006°
升交点赤经 260.083° 257.125°
平近点角 82.752° 320.699°
近地点 35780.884km 35781.045km
远地点 35791.57km 35792.979km
周期 1436.078分钟 1436.118分钟
每日圈数 1.002731 1.002703
Detailed Information
卫星平台:
LS-1300
平衡模式:
三轴稳定
覆盖范围:
全球
运营商:
国际卫星通信公司
运营商所在国:
美国
制造商(研发单位):
劳拉空间系统公司
制造商所在国:
美国
使用方式:
暂无
Satellite Introduction
从1965年4月至1984年3月,国际通信卫星组织发射了5代、6种不同性能的卫星共计35颗,除6颗卫星因运载火箭和远地点发动机故障而发射失败外,其余29颗卫星均被送到了预定的静止轨道位置。1984年8月前后,国际通信卫星组织利用部署在大西洋、太平洋、印度洋上空的15颗国际通信卫星,为遍布世界各地170多个国家或地区提供电话、电传、电报、电视和数据传输等电信业务;该卫星仍在工作。
2D Orbit Map
3D Orbit Map
Orbit Altitude Analysis Chart
Orbit Inclination Analysis Chart
Orbit Comprehensive Analysis Chart
View Comprehensive Chart